CZ-3B R/B (43451 NORAD) Tracking and Keplerian Element Data

This shows tracking and keplerian element data for the satellite.

Feedback or suggestion? Click here.




ElementValue
Catalog43451
NameCZ-3B R/B
Epoch Orbit58
Epoch Day152.604948
Epoch Year2018
RAAN91.8075
Inclination27.3386
Eccentricity0.7543192
Argument of Perigee193.6678
Mean Anonmoly103.4034
Mean Motion1.98328422
Decay Rate6.386E-05
L11 43451U 18041B 18152.60494800 .00006386 14059-5 73229-3 0 9992
L22 43451 27.3386 91.8075 7543192 193.6678 103.4034 1.98328422 586

Live tracking and technical data element details for CZ-3B R/B (NORAD 43451). CZ-3B R/B can be tracked NOW for your location showing map with azimuth and elevation plus other details from your city location.

Track the satellite on the map from your city or location and see movement details for azimuth, elevation, latitude, longitude, range, height, and movement on the map or in text.







IsCatalogInMostPopularTable: catalog: 43451, numindb: 60
Update: records affected: 1



GetName: 43451 CZ-3B R/B

Hit Count: updated at: Thu, 15 Nov 2018 03:43:36 GMT